Location: Camp at the Woods
(43.2055°N, 93.0905°W)
Time: 00:25:51
(UTC+00:00)

Cosmos 2227 Rocket - Pass Details

Date: 29 May 2025
Orbit: 837 x 844 km, 71.0° (Epoch: 12 June)

Event Time Altitude Azimuth Distance (km) Brightness Sun altitude
Exits shadow 05:22:36 13° 93° (E) 2,264 4.3 -24.2°
Drops below altitude 10° 05:24:40 10° 71° (ENE) 2,457 4.7 -24.3°
Sets 05:28:35 0° 45° (NE) 3,400 5.8 -24.4°
